EW1476 Weather Reports


time (UTC)temp
F
wind
direction
speed
knots
gust
knots
rain 1hr
in
rain 24hr
in
rain mn
in
humidity
%
barometer
mb
20260504214509 73 217 0.9 1.7 0.00 0.00 0.00 38 1009.8
20260504213009 73 241 0.9 1.7 0.00 0.00 0.00 34 1010.0
20260504211503 73 191 0.0 3.5 0.00 0.00 0.00 37 1010.0
20260504210004 73 235 0.9 2.6 0.00 0.00 0.00 35 1010.1
20260504204503 72 170 0.9 1.7 0.00 0.00 0.00 36 1010.0
20260504203020 73 209 0.9 2.6 0.00 0.00 0.00 35 1010.1
20260504201508 71 207 0.0 2.6 0.00 0.00 0.00 36 1010.3
20260504200004 72 103 0.0 3.5 0.00 0.00 0.00 36 1010.6
20260504194503 72 147 0.9 3.5 0.00 0.00 0.00 40 1010.8
20260504193009 72 210 0.9 4.3 0.00 0.00 0.00 40 1011.0
20260504191503 72 226 0.9 2.6 0.00 0.00 0.00 37 1011.3
20260504190014 71 245 0.9 3.5 0.00 0.00 0.00 37 1011.5
20260504184512 70 300 1.7 3.5 0.00 0.00 0.00 38 1011.8
20260504183008 70 135 0.9 3.5 0.00 0.00 0.00 37 1011.9
20260504181503 70 238 0.9 1.7 0.00 0.00 0.00 37 1012.3
20260504180009 70 187 0.9 2.6 0.00 0.00 0.00 37 1012.5
20260504174520 69 155 0.0 3.5 0.00 0.00 0.00 39 1012.7
20260504173020 69 238 0.0 2.6 0.00 0.00 0.00 37 1012.8
20260504171512 68 165 0.9 3.5 0.00 0.00 0.00 38 1012.9
20260504081512 45 212 0.0 0.0 0.00 0.00 0.00 73 1015.5
20260504050024 40 272 0.0 0.0 0.00 0.00 0.00 79 1016.0
20260504044522 41 272 0.0 0.0 0.00 0.00 0.00 77 1015.9
20260504043022 41 272 0.0 0.0 0.00 0.00 0.00 77 1015.9
20260504041520 42 272 0.0 0.0 0.00 0.00 0.00 77 1015.9
20260504040018 41 272 0.0 0.0 0.00 0.00 0.00 79 1015.8
20260504034514 41 272 0.0 0.0 0.00 0.00 0.00 78 1015.7
20260504033029 41 272 0.0 0.0 0.00 0.00 0.00 77 1015.6
20260504031526 41 272 0.0 0.0 0.00 0.00 0.00 76 1015.3
20260504030035 42 272 0.0 0.0 0.00 0.00 0.00 73 1015.2
20260504024522 43 272 0.0 0.0 0.00 0.00 0.00 74 1015.3
20260504023020 44 272 0.0 0.0 0.00 0.00 0.00 71 1015.3
20260504021515 44 272 0.0 0.0 0.00 0.00 0.00 70 1015.3
20260504020029 45 272 0.0 0.0 0.00 0.00 0.00 68 1015.2
20260504014525 46 272 0.0 0.0 0.00 0.00 0.00 68 1015.3
20260504013026 48 272 0.0 0.0 0.00 0.00 0.00 61 1015.3
20260504011523 49 272 0.0 0.0 0.00 0.00 0.00 62 1015.2
20260504010020 50 272 0.0 0.0 0.00 0.00 0.00 51 1015.1
20260504004529 52 272 0.0 0.0 0.00 0.00 0.00 47 1015.0
20260504003028 54 272 0.0 0.0 0.00 0.00 0.00 42 1014.7
20260504001527 55 272 0.0 0.0 0.00 0.00 0.00 39 1014.6
20260504000026 56 271 0.0 0.0 0.00 0.00 0.00 37 1014.5
20260503234526 57 272 0.0 0.0 0.00 0.00 0.00 34 1014.4
20260503233022 58 272 0.0 1.7 0.00 0.00 0.00 33 1014.3
20260503231520 58 260 0.9 1.7 0.00 0.00 0.00 32 1014.1
20260503230014 59 272 0.0 1.7 0.00 0.00 0.00 31 1014.0
20260503224508 59 271 1.7 5.2 0.00 0.00 0.00 32 1014.1
20260503223010 59 306 0.9 3.5 0.00 0.00 0.00 32 1014.2
20260503221525 59 317 0.0 2.6 0.00 0.00 0.00 33 1014.1
20260503220034 59 315 1.7 5.2 0.00 0.00 0.00 31 1014.2